Regional Weather Roundup
Issued by NWS Little Rock, AR

Home | Current Version | Previous Version | Graphics & Text | Print | Product List | Glossary On
Versions: 1 2 3 4 5 6 7 8 9 10 11 12 13 14 15 16 17 18 19 20 21 22 23 24 25 26 27 28 29 30 31 32 33 34 35 36 37 38 39 40 41 42 43 44 45 46 47 48 49 50
000
ASUS44 KLZK 041905
RWRLZK

WEATHER ROUNDUP FOR ARKANSAS
NATIONAL WEATHER SERVICE LITTLE ROCK AR
200 PM CDT TUE AUG 04 2015

NOTE: "FAIR" INDICATES FEW OR NO CLOUDS BELOW 12,000 FEET WITH NO
SIGNIFICANT WEATHER AND/OR OBSTRUCTIONS TO VISIBILITY.

ARZ001-003-010-029-042000-
NORTHWEST ARKANSAS

CITY           SKY/WX    TMP DP  RH WIND       PRES   REMARKS
FAYETTEVILLE   CLOUDY    83  70  64 W5        30.02F HX  87
FORT SMITH     LGT RAIN  84  64  50 N6        29.97F HX  85
HARRISON       CLOUDY    86  70  58 S6        30.03F HX  90
BENTONVILLE    CLOUDY    82  66  57 SW5       30.04S HX  85
ROGERS         CLOUDY    83  69  62 W7        30.04S HX  86
SILOAM SPGS    CLOUDY    82  64  54 SW6       30.02S
HIGHFILL       CLOUDY    82  69  64 VRB6      30.03S HX  85
SPRINGDALE     CLOUDY    84  68  58 W8        30.05S HX  87
$$

ARZ004-005-016-042000-
NORTH CENTRAL ARKANSAS

CITY           SKY/WX    TMP DP  RH WIND       PRES   REMARKS
BATESVILLE     PTSUNNY   93  66  40 SE8       29.99S HX  96
FLIPPIN        CLOUDY    91  66  43 S5        29.99S HX  94
MTN HOME       CLOUDY    88  70  55 S3        30.00F HX  93
$$

ARZ040-041-042000-
WEST CENTRAL ARKANSAS

CITY           SKY/WX    TMP DP  RH WIND       PRES   REMARKS
MENA           CLOUDY    86  70  58 W9G16     30.01R HX  90
MOUNT IDA      PTSUNNY   92  67  43 VRB3      29.97F HX  95
$$

ARZ009-017-025-026-028-042000-
NORTHEAST ARKANSAS

CITY           SKY/WX    TMP DP  RH WIND       PRES   REMARKS
JONESBORO      MOSUNNY   92  69  47 VRB7      29.98F HX  97
NEWPORT        MOSUNNY   96  67  38 SW8G22    29.99F HX 100
WALNUT RIDGE   PTSUNNY   91  66  43 SW10      29.98S HX  94
BLYTHEVILLE    MOSUNNY   93  72  50 SW7       29.99S HX 101
$$

ARZ022-023-033-042-044-042000-
CENTRAL ARKANSAS

CITY           SKY/WX    TMP DP  RH WIND       PRES   REMARKS
LITTLE ROCK    PTSUNNY   96  68  39 SE7       29.97F HX 101
N LITTLE ROCK  PTSUNNY   95  66  38 SW6       29.97F HX  99
JACKSONVILLE   PTSUNNY   95  66  38 VRB7      29.97F HX  98
SEARCY         PTSUNNY   96  70  42 SE10      29.99F HX 102
HOT SPRINGS    PTSUNNY   97  64  33 SW8       29.97F HX  99
RUSSELLVILLE   PTSUNNY   95  65  37 VRB7      29.96F HX  97
CLINTON        FAIR      93  68  43 CALM      29.99F HX  97
$$

ARZ036-042000-
EAST ARKANSAS

CITY           SKY/WX    TMP DP  RH WIND       PRES   REMARKS
WEST MEMPHIS   MOSUNNY   93  72  50 VRB5      29.98F HX 101
$$

ARZ050-053-066-070-073-042000-
SOUTHWEST ARKANSAS

CITY           SKY/WX    TMP DP  RH WIND       PRES   REMARKS
ARKADELPHIA    FAIR      99  68  36 CALM      29.96F HX 104
CAMDEN         PTSUNNY   95  64  36 CALM      29.96F HX  97
TEXARKANA      SUNNY     97  65  34 S12       29.96F HX  99
EL DORADO      MOSUNNY   96  67  38 SW6       29.97F HX 100
$$

ARZ056-057-069-042000-
SOUTHEAST ARKANSAS

CITY           SKY/WX    TMP DP  RH WIND       PRES   REMARKS
PINE BLUFF     PTSUNNY   96  62  32 SE3       29.97  HX  97
STUTTGART      PTSUNNY   97  66  36 MISG      29.98F HX 100
MONTICELLO     MOSUNNY   97  65  34 E6        29.97F HX  99

$$




USA.gov is the U.S. government's official web portal to all federal, state and local government web resources and services.